Change the Weather History Date:

Monday, November 28, 2011

  Actual Average Record
Temperature  
Mean Temperature 82 °F -  
Max Temperature 89 °F 88 °F 96 °F (1996)
Min Temperature 75 °F 74 °F 71 °F (2007)
Cooling Degree Days 17    
Growing Degree Days 32 (Base 50)    
Moisture  
Dew Point 74 °F    
Average Humidity 79    
Maximum Humidity 94    
Minimum Humidity 55    
Precipitation  
Precipitation 0.24 in 0.10 in - ()
Sea Level Pressure  
Sea Level Pressure 29.77 in    
Wind  
Wind Speed 3 mph ()    
Max Wind Speed 10 mph    
Max Gust Speed -    
Visibility 5.0 miles    
Events Rain    
Averages and records for this station are not official NWS values.
T = Trace of Precipitation, MM = Missing Value Source: Averaged Metar Reports

Daily Weather History Graph

Daily Weather History Graph

Search for Another Location

Airport or City:

Trip Planner

Search our weather history database for the weather conditions in past years. The results will help you decide how hot, cold, wet, or windy it might be!

Date:

Astronomy

Nov. 28, 2011 Rise Set
Actual Time 6:23 AM ICT 6:05 PM ICT
Civil Twilight 6:01 AM ICT 6:27 PM ICT
Nautical Twilight 5:35 AM ICT 6:53 PM ICT
Astronomical Twilight 5:09 AM ICT 7:19 PM ICT
Moon 9:10 AM ICT (11/28) 9:12 PM ICT (11/28)
Length of Visible Light 12h 26m
Length of Day
11h 41m
Waxing Crescent, 12% of the Moon is Illuminated
Nov 28
Waxing Crescent
Dec 2
First Quarter
Dec 10
Full
Dec 18
Last Quarter
Dec 25
New

Hourly Weather History & Observations

Time (ICT) Temp. Heat Index Dew Point Humidity Pressure Visibility Wind Dir Wind Speed Gust Speed Precip Events Conditions
12:00 AM 78.8 °F - 73.4 °F 83% 29.80 in 4.3 mi Calm Calm - N/A   Mostly Cloudy
12:30 AM 77.0 °F - 73.4 °F 89% 29.80 in 4.3 mi Calm Calm - N/A   Mostly Cloudy
1:00 AM 79 °F - 77 °F 90% 29.78 in 6 mi Calm Calm - -   Mist
1:00 AM 77.0 °F - 73.4 °F 89% 29.80 in 4.3 mi Calm Calm - N/A   Mostly Cloudy
1:30 AM 78.8 °F - 73.4 °F 83% 29.80 in 4.3 mi Calm Calm - N/A   Mostly Cloudy
2:00 AM 77.0 °F - 73.4 °F 89% 29.77 in 4.3 mi Calm Calm - N/A   Mostly Cloudy
2:30 AM 77.0 °F - 73.4 °F 89% 29.77 in 4.3 mi Calm Calm - N/A   Mostly Cloudy
3:00 AM 77.0 °F - 73.4 °F 89% 29.77 in 4.3 mi Calm Calm - N/A   Mostly Cloudy
3:30 AM 77.0 °F - 73.4 °F 89% 29.77 in 4.3 mi Calm Calm - N/A   Mostly Cloudy
4:00 AM 77.0 °F - 73.4 °F 89% 29.74 in 4.3 mi Calm Calm - N/A   Mostly Cloudy
4:30 AM 77.0 °F - 73.4 °F 89% 29.74 in 4.3 mi Calm Calm - N/A   Mostly Cloudy
5:00 AM 77.0 °F - 73.4 °F 89% 29.74 in 4.3 mi Calm Calm - N/A   Mostly Cloudy
5:30 AM 77.0 °F - 73.4 °F 89% 29.74 in 4.3 mi Calm Calm - N/A   Mostly Cloudy
6:00 AM 77.0 °F - 73.4 °F 89% 29.77 in 4.3 mi Calm Calm - N/A   Mostly Cloudy
6:30 AM 77.0 °F - 73.4 °F 89% 29.77 in 5.6 mi Calm Calm - N/A   Scattered Clouds
7:00 AM 76 °F - 75 °F 94% 29.74 in 6 mi Calm Calm - -   Scattered Clouds
7:00 AM 77.0 °F - 73.4 °F 89% 29.77 in - Calm Calm - N/A   Scattered Clouds
7:30 AM 80.6 °F 85.4 °F 73.4 °F 79% 29.80 in 5.6 mi NE 4.6 mph - N/A   Scattered Clouds
8:00 AM 80.6 °F 85.4 °F 73.4 °F 79% 29.80 in 5.6 mi East 5.8 mph - N/A   Scattered Clouds
8:30 AM 82.4 °F 89.5 °F 75.2 °F 79% 29.80 in 6.2 mi East 5.8 mph - N/A   Scattered Clouds
9:00 AM 84.2 °F 90.9 °F 73.4 °F 70% 29.80 in 6.2 mi East 8.1 mph - N/A   Scattered Clouds
9:30 AM 86.0 °F 93.4 °F 73.4 °F 66% 29.80 in 6.2 mi NE 5.8 mph - N/A   Scattered Clouds
10:00 AM 86.0 °F 95.1 °F 75.2 °F 70% 29.80 in 6.2 mi East 8.1 mph - N/A   Partly Cloudy
10:30 AM 86.0 °F 93.4 °F 73.4 °F 66% 29.80 in 6.2 mi East 9.2 mph - N/A   Partly Cloudy
11:00 AM 87.8 °F 95.6 °F 73.4 °F 62% 29.80 in 6.2 mi East 10.4 mph - N/A   Partly Cloudy
11:30 AM 87.8 °F 95.6 °F 73.4 °F 62% 29.77 in 6.2 mi East 10.4 mph - N/A   Partly Cloudy
12:00 PM 87.8 °F 95.6 °F 73.4 °F 62% 29.77 in 6.2 mi East 8.1 mph - N/A   Partly Cloudy
12:30 PM 89.6 °F 98.2 °F 73.4 °F 59% 29.74 in 6.2 mi East 10.4 mph - N/A   Partly Cloudy
1:00 PM 89 °F - 75 °F 55% 29.75 in 6 mi East 5.8 mph - -   Scattered Clouds
1:00 PM 89.6 °F 99.8 °F 75.2 °F 62% 29.74 in 6.2 mi East 10.4 mph - N/A   Partly Cloudy
1:30 PM 89.6 °F 98.2 °F 73.4 °F 59% 29.71 in 6.2 mi East 10.4 mph - N/A   Partly Cloudy
2:00 PM 89.6 °F 98.2 °F 73.4 °F 59% 29.71 in 6.2 mi East 10.4 mph - N/A   Partly Cloudy
2:30 PM 89.6 °F 98.2 °F 73.4 °F 59% 29.71 in 6.2 mi East 9.2 mph - N/A   Partly Cloudy
3:00 PM 91.4 °F 100.1 °F 73.4 °F 55% 29.68 in 6.2 mi East 9.2 mph - N/A   Partly Cloudy
3:30 PM 89.6 °F 102.2 °F 77.0 °F 66% 29.68 in 6.2 mi Variable 5.8 mph - N/A   Partly Cloudy
4:00 PM 87.8 °F 99.7 °F 77.0 °F 70% 29.68 in 6.2 mi Variable 5.8 mph - N/A   Partly Cloudy
4:30 PM 86.0 °F 95.1 °F 75.2 °F 70% 29.68 in 6.2 mi West 4.6 mph - N/A   Scattered Clouds
5:00 PM 86.0 °F 95.1 °F 75.2 °F 70% 29.71 in 6.2 mi West 3.5 mph - N/A   Mostly Cloudy
5:30 PM 86.0 °F 93.4 °F 73.4 °F 66% 29.74 in 6.2 mi West 9.2 mph - N/A   Mostly Cloudy
6:00 PM 84.2 °F 90.9 °F 73.4 °F 70% 29.74 in 5.6 mi West 8.1 mph - N/A   Mostly Cloudy
6:30 PM 84.2 °F 92.3 °F 75.2 °F 74% 29.74 in 4.3 mi Variable 4.6 mph - N/A   Mostly Cloudy
7:00 PM 80 °F - 76 °F 83% 29.74 in 3 mi Calm Calm - - Rain Light Rain
7:00 PM 78.8 °F - 77.0 °F 94% 29.77 in 0.6 mi WNW 3.5 mph - N/A Rain Heavy Rain
7:30 PM 78.8 °F - 75.2 °F 89% 29.80 in 3.1 mi NNE 8.1 mph - N/A Rain Rain
8:00 PM 77.0 °F - 73.4 °F 89% 29.80 in 1.9 mi South 4.6 mph - N/A Rain Rain
8:30 PM 77.0 °F - 75.2 °F 94% 29.80 in 3.1 mi Calm Calm - N/A Rain Light Rain
9:00 PM 77.0 °F - 75.2 °F 94% 29.83 in 3.1 mi Calm Calm - N/A Rain Light Rain
9:30 PM 77.0 °F - 75.2 °F 94% 29.83 in 4.3 mi SSE 2.3 mph - N/A   Mostly Cloudy
10:00 PM 77.0 °F - 73.4 °F 89% 29.83 in 4.3 mi Calm Calm - N/A   Mostly Cloudy
10:30 PM 77.0 °F - 73.4 °F 89% 29.83 in 4.3 mi Calm Calm - N/A   Mostly Cloudy
11:30 PM 77.0 °F - 75.2 °F 94% 29.83 in 4.3 mi Calm Calm - N/A   Mostly Cloudy